This is the latest recevied weather packets stored in our database for station/object E22FEY-1. If no packets are shown the sender has not sent any weather packets the latest 10 day(s).
| Time | Temp. | Humidity | Pressure | Rain* | Wind** | Luminosity | Snow |
|---|---|---|---|---|---|---|---|
| 1777377778 | 34.44° C | 54% | 1005 hPa | - | - | 0 W/m² | - |
| 1777376854 | 34.44° C | 53% | 1005 hPa | - | - | 0 W/m² | - |
| 1777375930 | 35° C | 50% | 1005 hPa | - | - | 0 W/m² | - |
| 1777375006 | 35.56° C | 47% | 1005 hPa | - | - | 0 W/m² | - |
| 1777374081 | 36.11° C | 47% | 1004 hPa | - | - | 0 W/m² | - |
| 1777373157 | 35.56° C | 46% | 1005 hPa | - | - | 0 W/m² | - |
| 1777372233 | 36.67° C | 44% | 1004 hPa | - | - | 0 W/m² | - |
| 1777371309 | 36.11° C | 45% | 1004 hPa | - | - | 0 W/m² | - |
| 1777370384 | 36.11° C | 43% | 1004 hPa | - | - | 0 W/m² | - |
| 1777369461 | 36.11° C | 43% | 1004 hPa | - | - | 0 W/m² | - |
| 1777368536 | 38.33° C | 39% | 1004 hPa | - | - | 0 W/m² | - |
| 1777367612 | 38.33° C | 40% | 1004 hPa | - | - | 0 W/m² | - |
| 1777366688 | 38.33° C | 39% | 1005 hPa | - | - | 0 W/m² | - |
| 1777365764 | 37.22° C | 40% | 1005 hPa | - | - | 0 W/m² | - |
| 1777364840 | 38.89° C | 40% | 1005 hPa | - | - | 0 W/m² | - |
| 1777363915 | 38.89° C | 39% | 1005 hPa | - | - | 0 W/m² | - |
| 1777362991 | 38.33° C | 41% | 1005 hPa | - | - | 0 W/m² | - |
| 1777362067 | 38.33° C | 39% | 1006 hPa | - | - | 0 W/m² | - |
| 1777361142 | 38.33° C | 40% | 1006 hPa | - | - | 0 W/m² | - |
| 1777360218 | 38.33° C | 42% | 1006 hPa | - | - | 0 W/m² | - |
| 1777359294 | 37.78° C | 42% | 1006 hPa | - | - | 0 W/m² | - |
| 1777358370 | 37.78° C | 44% | 1006 hPa | - | - | 0 W/m² | - |
| 1777357445 | 37.22° C | 45% | 1006 hPa | - | - | 0 W/m² | - |
| 1777356521 | 36.67° C | 45% | 1007 hPa | - | - | 0 W/m² | - |
| 1777355597 | 37.78° C | 43% | 1007 hPa | - | - | 0 W/m² | - |
* Rain since midnight (hover to see other rain measurements)
** Current wind speed in m/s (hover to see current wind gust speed)